Showing default

CBERS 1, 25940

Orbit data source: Space-Track

CBERS 1, 25940 is a CN and BR payload satellite in SSO that was launched on Thu, 14 Oct 1999 UTC via a CHANG ZHENG 4B launch vehicle from the Taiyaun Space Center, China (TSC). Payload-class satellites include a variety of spacecraft equipped with specific instruments for various scientific and technological missions. These include communications satellites like Starlink; space stations such as the ISS; scientific satellites like the Hubble; Earth observation satellites from companies like Planet Labs, Umbra, and HawkEye 360; GPS; miniature CubeSats for education and research; and military/defense satellites.

Loading next visibility...
Identifier
25940, 1999-057A
Orbit
SSO
Country
Flag of UnknownUnknown / CHBZ
Related business
Manufacturer
CAST
Mission
Civil Imaging
Bus & Motor
ZY, AOCS 20N
Mass
1,540 kg wet, ~1,450 kg dry
Launch date (UTC)
1999-10-14 (26 years ago)
Launch vehicle
CHANG ZHENG 4B
Launch site
Taiyaun Space Center, China (TSC)
Object type
Payload
Rocket body
Debris
Shape & HBR
Box + 1 Pan, 4.5 m
Radar Cross Section
9.469 m², Large (>1 m²)

Expand to show TLE details & history
Last TLE update: 20 hours ago

TLE from 20 hours ago
0 CBERS 1
1 25940U 99057A   25349.28111375  .00000240  00000-0  96981-4 0  9994
2 25940  98.8484 348.6702 0005028 168.6351 191.4949 14.36904981371102
Epoch: 2025-12-15T06:44Z
TLE epoch observation values (Epoch: 2025-12-15T06:44:48.228Z)
Latitude
-0.00003°
Longitude
163.28733°
Altitude
775.198 km
Speed
7.465 km/s
True Right ascension
23h 14m 40s
True Declination
0° 00' 00"
Sunlit
Object was in daylight at epoch
Visualization orbit readout
Latitude
Unknown
Longitude
Unknown
Altitude
Unknown
Speed
Unknown
Apparent Right ascension
Unknown
Apparent Declination
Unknown
Sunlit
N/A
Visualization observer readout
Local Sidereal Time
01:19:13
Azimuth
Unknown
Elevation
Unknown
Doppler factor
Unknown
Orbital elements
Apogee altitude
769.478 km
Perigee altitude
762.294 km
Semi-major axis
7,144.023 km
Eccentricity
0.0005
Inclination
98.8484°
RAAN
348.6702°
Arg. of periapsis
168.6351°
True anomaly
191.48343°
Mean anomaly
191.4949°
Eccentric anomaly
191.48916°
Mean motion
3.59442 °/min
Orbital period
100.16 mins
BSTAR
0.000096981
Loading maneuver chart data...
Computing Atmospheric mass density...
Loading historical data...
Loading historical data...
Loading historical data...
Loading historical data...
Loading historical data...
Loading historical data...
Loading historical data...

Documentation

Showing up to 5 results
|